Regional Weather Roundup
Issued by NWS

Home | Current Version | Previous Version | Graphics & Text | Print | Product List | Glossary Off
Versions: 1 2 3 4 5 6 7 8 9 10 11 12 13 14 15 16 17 18 19 20 21 22 23 24 25 26 27 28 29 30 31 32 33 34 35 36 37 38 39 40 41 42 43 44 45 46 47 48 49 50

000
ASUS43 KMKX 240600
RWRWI

WISCONSIN REGIONAL WEATHER ROUNDUP
NATIONAL WEATHER SERVICE MILWAUKEE/SULLIVAN WI
100 AM CDT TUE MAY 24 2016

NOTE: "FAIR" INDICATES FEW OR NO CLOUDS BELOW 12,000 FEET WITH NO
SIGNIFICANT WEATHER AND/OR OBSTRUCTIONS TO VISIBILITY.

WIZ001-002-006>008-014>016-023>028-240700-
NORTHWEST WISCONSIN

CITY           SKY/WX    TMP DP  RH WIND       PRES   REMARKS
SUPERIOR ARPT  LGT RAIN  61  60  97 S5        29.78F
ASHLAND        CLOUDY    60  60 100 SE5       29.83F
6HR MIN TEMP:  60; 6HR MAX TEMP:  66; 6HR PCP:  0.70;

HAYWARD        CLOUDY    64  60  87 S3        29.84S
6HR MIN TEMP:  63; 6HR MAX TEMP:  67; 6HR PCP: TRACE;

SIREN          CLOUDY    61  60  94 CALM      29.80F
CUMBERLAND     CLOUDY    61  55  82 S7        29.85S
RICE LAKE      CLOUDY    66  56  70 S6        29.87R
CHETEK         CLOUDY    62  62  99 CALM      29.86F
LADYSMITH      LGT RAIN  65  61  88 S6        29.88S
EAU CLAIRE     NOT AVBL
MENOMONIE      LGT RAIN  65  61  87 CALM      29.85F
NEW RICHMOND   LGT RAIN  64  57  79 SE5       29.84F
OSCEOLA        CLOUDY    63  63 100 SE6       29.83F
$$

WIZ003>005-009-010-017-018-240700-
NORTH CENTRAL WISCONSIN

CITY           SKY/WX    TMP DP  RH WIND       PRES   REMARKS
MANITOWISH WTR CLOUDY    61  61 100 CALM      29.86S
ARBOR VITAE    CLOUDY    65  60  82 CALM      29.87S
WOODRUFF       CLOUDY    65  60  82 CALM      29.87S
RHINELANDER    CLOUDY    68  47  46 SW6       29.88S
6HR MIN TEMP:  68; 6HR MAX TEMP:  79;

EAGLE RIVER      N/A     67  44  43 SW3       29.86S
LAND O LAKES   CLOUDY    63  56  78 CALM      29.87S
PHILLIPS       CLOUDY    65  61  85 S6        29.86S
TOMAHAWK       MOCLDY    63  49  60 CALM      29.88S
MEDFORD        MOCLDY    66  55  66 SW8       29.88R
MERRILL        CLOUDY    66  48  52 CALM      29.88S
$$

WIZ029-030-035-036-043>047-240700-
CENTRAL WISCONSIN

CITY           SKY/WX    TMP DP  RH WIND       PRES   REMARKS
WAUSAU         MOCLDY    64  51  62 E3        29.87S
6HR MIN TEMP:  64; 6HR MAX TEMP:  82;

MOSINEE        CLOUDY    63  46  55 SW5       29.90R
MARSHFIELD     CLOUDY    64  51  62 CALM      29.87F
6HR MIN TEMP:  64; 6HR MAX TEMP:  79;

STEVENS POINT  CLEAR     62  46  55 W3        29.89R
WAUPACA        PTCLDY    63  50  62 CALM      29.88S
WAUTOMA        CLOUDY    56  51  84 CALM      29.89R
6HR MIN TEMP:  56; 6HR MAX TEMP:  81;

WISC RAPIDS    PTCLDY    61  46  57 CALM      29.89R
6HR MIN TEMP:  60; 6HR MAX TEMP:  80;

CAMP DOUGLAS   NOT AVBL
$$

WIZ011>013-019>022-031-037>040-048>050-240700-
NORTHEAST WISCONSIN

CITY           SKY/WX    TMP DP  RH WIND       PRES   REMARKS
ANTIGO         CLOUDY    60  46  61 CALM      29.90R
SHAWANO        CLEAR     66  48  51 CALM      29.88R
OCONTO         CLEAR     61  48  63 S3        29.87S
STURGEON BAY   NOT AVBL
GREEN BAY      PTCLDY    63  42  46 S8        29.88S
6HR MIN TEMP:  63; 6HR MAX TEMP:  77;

MANITOWOC      NOT AVBL
APPLETON       CLEAR     61  45  55 SE7       29.88R
CLINTONVILLE   CLEAR     63  48  59 S6        29.87S
OSHKOSH        CLEAR     59  46  62 S9        29.89R
6HR MIN TEMP:  58; 6HR MAX TEMP:  80;

$$

WIZ032>034-041-042-053>061-240700-
SOUTHWEST WISCONSIN

CITY           SKY/WX    TMP DP  RH WIND       PRES   REMARKS
LA CROSSE      CLOUDY    69  59  70 CALM      29.85S
6HR MIN TEMP:  68; 6HR MAX TEMP:  82;

SPARTA         CLOUDY    63  56  79 CALM      29.87S
VIROQUA        CLOUDY    68  47  46 S7        29.89S
BOSCOBEL       NOT AVBL
PRAIRIE DU CHI CLOUDY    69  47  46 CALM      29.87R
PLATTEVILLE    MOCLDY    64  48  54 S3        29.90S
$$

WIZ056-057-062-063-064-067-068-240700-
SOUTH CENTRAL WISCONSIN

CITY           SKY/WX    TMP DP  RH WIND       PRES   REMARKS
REEDSBURG      CLOUDY    67  47  49 CALM      29.88S
BARABOO/DELLS  CLOUDY    66  44  44 SW6       29.89S
LONE ROCK      NOT AVBL
MINERAL POINT  CLOUDY    66  43  42 S7        29.90F
MADISON        CLEAR     61  50  67 SW3       29.90R
6HR MIN TEMP:  60; 6HR MAX TEMP:  80;

MIDDLETON      CLEAR     60  48  65 SW5       29.91R
WATERTOWN      CLEAR     61  45  54 CALM      29.91R
MONROE         PTCLDY    64  45  48 SW9       29.91S
JANESVILLE     CLEAR     63  46  55 S3        29.91R
$$

WIZ051-052-058>065-066-070>072-240700-
SOUTHEAST WISCONSIN

CITY           SKY/WX    TMP DP  RH WIND       PRES   REMARKS
MILWAUKEE      PTCLDY    63  39  41 S6        29.92S
6HR MIN TEMP:  62; 6HR MAX TEMP:  73;

WAUKESHA       CLEAR     61  36  39 S6        29.93S
MILWAUKEE/TIMM CLEAR     63  32  31 S6        29.92S
RACINE         CLOUDY    61  42  49 S6        29.94S
6HR MIN TEMP:  61; 6HR MAX TEMP:  70;

BURLINGTON     CLEAR     52  45  77 CALM      29.93R
KENOSHA        CLOUDY    60  42  51 S6        29.93R
6HR MIN TEMP:  60; 6HR MAX TEMP:  72;

FOND DU LAC    CLEAR     60  44  55 S6        29.90R
6HR MIN TEMP:  58; 6HR MAX TEMP:  80;

SHEBOYGAN      CLOUDY    55  37  50 CALM      29.92R
6HR MIN TEMP:  55; 6HR MAX TEMP:  70;

WEST BEND      CLOUDY    61  34  36 CALM      29.92R
JUNEAU         CLEAR     61  44  52 SE3       29.92R
$$

LSZ147-162-240700-
LAKE SUPERIOR

STATION/POSITION TIME  TEMP    WIND        PRES    WAVE
                       AIR SEA DIR/SP/G            HT/PER
                 (UTC) (F)     (DEG/KT/KT) (MB)    (FT/S)
W MID LAKE BUOY  0450   47 38  220/  2/  4 1009.0S   1
DEVILS ISLAND    0500   60     170/ 11/ 13 1009.5R
PORT WING        0520          140/  3/  9 1008.8F
SAXON HARBOR     0500   65     230/  5/ 14 1010.8
$$

LMZ867-665-643>646-240700-
LAKE MICHIGAN

STATION/POSITION TIME  TEMP    WIND        PRES    WAVE
                       AIR SEA DIR/SP/G            HT/PER
                 (UTC) (F)     (DEG/KT/KT) (MB)    (FT/S)
CHAMBERS ISLAND  0500   63     170/  6/ 11 1011.9R
N MID LAKE BUOY  0450   48 44  180/ 10/ 10 1012.0F   2/ 4
NORTHPORT PIER   0500   60     160/  7/ 11 1011.9S
SISTER BAY       0519   63     180/ 16/ 20   N/A
ALGOMA LAKESHORE 0517          220/ 10/ 11   N/A
KEWAUNEE LAKESHO 0500   54     170/  7/  8 1012.0R
SHEBOYGAN LAKESH 0500   62     190/ 16/ 19 1013.2R
PORT WASHINGTON  0500   58     190/  4/  7 1013.9
S MID LAKE BUOY  0450   56 49  140/ 10/ 12 1013.6R   0
KENOSHA   LAKESH 0500   58     170/ 12/ 15 1013.2S
$$

TC  - TEMPERATURE IN CELSIUS
VSB - VISIBILITY IN STATUTE MILES
WCI - WIND CHILL INDEX
HX  - HEAT INDEX




USA.gov is the U.S. government's official web portal to all federal, state and local government web resources and services.